Location: LDNL
(36.4545°S, 141.6685°E)
Time: 04:34:08
(UTC+10:00)

Vanguard 1 - Visible Passes

Search period start: 26 June 2024 00:00
Search period end: 06 July 2024 00:00
Orbit: 651 x 3825 km, 34.2° (Epoch: 22 June)

Date Brightness Start Highest point End Pass type
(mag) Time Alt. Az. Time Alt. Az. Time Alt. Az.
26 Jun 13.8 01:02:28 25° E 01:02:28 25° E 01:09:10 10° E visible
26 Jun 12.7 03:15:06 74° NNE 03:15:06 74° NNE 03:36:11 10° ENE visible
26 Jun 13.1 05:27:43 33° W 05:39:09 52° NW 05:58:45 10° NE visible
26 Jun 12.6 20:15:19 10° N 20:17:39 16° NNE 20:17:39 16° NNE visible
27 Jun 13.6 01:21:22 30° E 01:21:22 30° E 01:30:03 10° E visible
27 Jun 12.6 03:34:00 73° N 03:34:00 73° N 03:56:31 10° ENE visible
27 Jun 13.2 05:46:38 27° W 05:59:12 44° NW 06:17:55 10° NNE visible
27 Jun 12.4 20:33:41 10° N 20:36:42 21° N 20:36:42 21° N visible
27 Jun13.623:27:40E23:27:40E22:49:21WNWvisible
28 Jun 13.5 01:40:18 35° E 01:40:18 35° E 01:50:52 10° E visible
28 Jun 12.7 03:52:56 67° NW 03:53:56 67° NNW 04:16:37 10° NE visible
28 Jun 13.4 06:05:34 20° W 06:19:06 36° NW 06:36:40 10° NNE visible
28 Jun 12.3 20:52:35 10° NNW 20:55:46 25° N 20:55:46 25° N visible
28 Jun13.723:46:37E23:46:37E23:08:24WNWvisible
29 Jun 13.3 01:59:15 41° ENE 01:59:15 41° ENE 02:11:37 10° ENE visible
29 Jun 12.7 04:11:53 58° NW 04:14:22 60° NNW 04:36:28 10° NE visible
29 Jun 13.6 06:24:31 15° W 06:38:54 28° NW 06:54:52 10° N visible
29 Jun 12.3 21:11:51 10° NW 21:14:49 26° NNW 21:14:49 26° NNW visible
30 Jun 13.2 02:18:14 46° ENE 02:18:14 46° ENE 02:32:13 10° ENE visible
30 Jun 12.9 04:30:52 49° WNW 04:34:40 52° NNW 04:56:01 10° NE visible
30 Jun 13.8 06:44:08 10° W 06:58:38 21° NW 07:12:12 10° N visible
30 Jun 12.3 19:16:22 10° NNE 19:20:47 16° NE 19:21:13 16° NE visible
30 Jun 12.4 21:31:22 10° NW 21:33:51 24° NW 21:33:51 24° NW visible
01 Jul 14.2 00:24:35 11° E 00:24:35 11° E 00:25:03 10° E visible
01 Jul 13.1 02:37:13 50° NE 02:37:13 50° NE 02:52:38 10° ENE visible
01 Jul 13.0 04:49:51 40° WNW 04:54:50 44° NW 05:15:13 10° NNE visible
01 Jul 13.9 07:08:34 10° WNW 07:18:21 14° NW 07:27:43 10° NNW visible
01 Jul 12.0 19:34:25 10° N 19:40:05 23° NE 19:40:15 23° NE visible
01 Jul 12.6 21:51:03 10° WNW 21:52:53 20° NW 21:52:53 20° NW visible
02 Jul 14.1 00:43:35 15° E 00:43:35 15° E 00:45:57 10° E visible
02 Jul 13.0 02:56:14 52° NNE 02:56:14 52° NNE 03:12:50 10° NE visible
02 Jul 13.2 05:08:52 32° WNW 05:14:54 36° NW 05:33:59 10° NNE visible
02 Jul 11.6 19:53:13 10° NNW 19:59:16 32° NE 19:59:16 32° NE visible
02 Jul 12.9 22:10:53 10° WNW 22:11:54 15° WNW 22:11:54 15° WNW visible
03 Jul 13.9 01:02:36 19° ENE 01:02:36 19° ENE 01:06:46 10° ENE visible
03 Jul 13.0 03:15:15 51° N 03:15:15 51° N 03:32:45 10° NE visible
03 Jul 13.4 05:27:53 24° WNW 05:34:54 28° NW 05:52:10 10° N visible
03 Jul 11.4 20:12:25 10° NW 20:18:16 41° NNE 20:18:16 41° NNE visible
03 Jul 13.1 22:30:48 10° WNW 22:30:55 11° WNW 22:30:55 11° WNW visible
04 Jul 13.8 01:21:38 22° ENE 01:21:38 22° ENE 01:27:27 10° ENE visible
04 Jul 13.0 03:34:16 48° N 03:34:16 48° N 03:52:20 10° NE visible
04 Jul 13.6 05:46:55 17° WNW 05:54:51 21° NW 06:09:30 10° N visible
04 Jul 12.2 18:18:12 10° NE 18:20:07 11° NE 18:22:16 10° ENE visible
04 Jul 11.3 20:31:52 10° NW 20:37:15 48° N 20:37:15 48° N visible
05 Jul 13.7 01:40:39 26° ENE 01:40:39 26° ENE 01:47:57 10° ENE visible
05 Jul 13.1 03:53:17 42° NNW 03:53:17 42° NNW 04:11:33 10° NNE visible
05 Jul 13.8 06:05:57 11° WNW 06:14:49 15° NW 06:25:06 10° NNW visible
05 Jul 11.8 18:35:23 10° N 18:39:28 18° NE 18:43:35 13° E visible
05 Jul 11.4 20:51:32 10° WNW 20:56:13 47° NW 20:56:13 47° NW visible
